Location: Carabito
(9.8355°N, 67.9249°W)
Time: 00:35:15
(UTC+00:00)

Cosmos 2341 Rocket - Pass Details

Date: 23 May 2024
Orbit: 967 x 1004 km, 82.9° (Epoch: 15 June)

Event Time Altitude Azimuth Distance (km) Brightness Sun altitude
Exits shadow 08:43:05 35° 228° (SW) 1,551 4.5 -20.4°
Maximum altitude 08:45:10 46° 274° (W) 1,295 4.3 -20.0°
Drops below altitude 10° 08:51:07 10° 346° (NNW) 2,723 6.5 -18.6°
Sets 08:53:44 0° 353° (N) 3,665 7.3 -18.1°
